Location: Grandview
(34.8900°N, 117.1058°W)
Time: 12:03:35
(UTC-07:00)

OTV 5 (USA 277) - Pass Details

Date: 13 October 2017
Orbit: 404 x 417 km, 43.0° (Epoch: 07 September)

Event Time Altitude Azimuth Distance (km) Brightness Sun altitude
Rises 18:52:48 0° 268° (W) 2,347 ? -8.4°
Reaches altitude 10° 18:55:04 10° 280° (W) 1,486 ? -8.9°
Maximum altitude 18:58:05 30° 344° (NNW) 775 ? -9.5°
Drops below altitude 10° 19:01:06 10° 47° (NE) 1,489 ? -10.1°
Enters shadow 19:01:14 - 48° (NE) 1,534 ? -10.1°
